Temp
-14 -13 -13 -13 -13 -13 -13 -13 -12 -12 -12 -11 -11 -11 -11 -11 -11 -11 -11 -11 -11 -10 -10 -10 -11 -11 -11 -11 -10 -10 -10 -10 -10 -9 -9 -9 -9 -9 -9 -10 -10 -10 -10 -10
-14 -14 -14 -13 -13 -13 -13 -13 -12 -12 -12 -12 -11 -11 -11 -11 -11 -11 -11 -11 -11 -11 -11 -11 -11 -11 -11 -10 -10 -10 -10 -10 -9 -9 -9 -10 -10 -10 -10 -10 -10 -11 -11 -11
-15 -14 -14 -14 -13 -13 -13 -13 -13 -13 -12 -12 -12 -12 -12 -11 -11 -11 -11 -11 -11 -11 -11 -11 -10 -10 -10 -10 -10 -10 -10 -9 -9 -10 -10 -10 -10 -11 -11 -11 -11 -11 -12 -12
-15 -15 -14 -14 -14 -13 -13 -13 -13 -13 -12 -12 -12 -11 -11 -12 -11 -11 -11 -11 -11 -11 -10 -10 -10 -10 -10 -10 -10 -10 -10 -10 -10 -10 -10 -10 -11 -11 -11 -11 -12 -12 -11 -11
-15 -15 -15 -15 -14 -14 -14 -14 -13 -13 -13 -12 -12 -12 -11 -11 -12 -11 -11 -11 -11 -11 -11 -11 -11 -11 -11 -11 -11 -11 -11 -10 -10 -11 -11 -11 -11 -12 -12 -12 -12 -12 -12 -12
-16 -15 -15 -15 -14 -14 -14 -14 -13 -13 -13 -12 -12 -12 -10 -12 -12 -12 -11 -11 -11 -11 -11 -11 -11 -12 -12 -12 -12 -11 -11 -11 -11 -11 -12 -13 -12 -13 -12 -12 -12 -12 -12 -12
-16 -16 -16 -15 -14 -14 -14 -13 -13 -13 -13 -12 -12 -12 -11 -11 -12 -12 -12 -12 -12 -12 -12 -12 -12 -12 -12 -12 -12 -12 -12 -12 -13 -12 -12 -13 -13 -13 -12 -12 -12 -12 -12 -12
-16 -16 -15 -15 -15 -14 -14 -14 -14 -14 -13 -13 -13 -12 -12 -13 -12 -12 -12 -12 -12 -12 -12 -13 -13 -13 -13 -12 -13 -13 -13 -12 -12 -12 -13 -13 -13 -12 -12 -12 -12 -12 -12 -12
-16 -16 -15 -15 -15 -15 -15 -15 -14 -14 -13 -13 -13 -13 -13 -13 -13 -13 -13 -13 -13 -13 -13 -13 -13 -13 -14 -14 -13 -13 -12 -12 -13 -13 -13 -13 -13 -13 -13 -12 -12 -12 -13 -13
-17 -16 -16 -16 -16 -15 -15 -15 -15 -15 -14 -14 -13 -13 -14 -14 -14 -14 -14 -13 -14 -13 -13 -13 -14 -14 -14 -14 -14 -13 -13 -14 -14 -14 -14 -13 -13 -13 -13 -13 -13 -13 -13 -14
-16 -16 -16 -16 -16 -16 -16 -16 -15 -15 -15 -14 -14 -13 -15 -14 -14 -14 -14 -14 -14 -13 -14 -14 -14 -14 -14 -15 -14 -15 -15 -15 -15 -14 -14 -14 -13 -13 -13 -13 -13 -14 -14 -14
-16 -16 -16 -16 -16 -16 -16 -16 -15 -15 -15 -15 -15 -14 -14 -14 -15 -15 -14 -15 -15 -14 -14 -14 -14 -14 -15 -15 -15 -15 -15 -14 -14 -14 -14 -13 -13 -13 -13 -13 -14 -14 -14 -15
-16 -16 -16 -16 -15 -15 -15 -15 -15 -15 -15 -15 -15 -16 -14 -15 -15 -16 -16 -16 -15 -15 -14 -14 -14 -15 -15 -15 -15 -15 -14 -14 -14 -14 -14 -14 -14 -14 -14 -14 -14 -15 -15 -15
-16 -16 -16 -16 -16 -16 -15 -15 -15 -15 -15 -15 -15 -15 -14 -14 -14 -15 -15 -15 -15 -15 -15 -15 -15 -15 -15 -15 -15 -15 -14 -14 -14 -14 -14 -14 -14 -14 -14 -14 -14 -14 -14 -15
-16 -16 -16 -15 -15 -15 -15 -15 -15 -15 -15 -14 -14 -14 -14 -14 -14 -14 -14 -14 -15 -15 -15 -15 -15 -15 -15 -15 -15 -14 -14 -14 -14 -14 -14 -14 -14 -14 -14 -14 -14 -14 -14 -14
-15 -15 -15 -15 -15 -15 -15 -15 -15 -15 -14 -14 -14 -15 -14 -14 -14 -14 -14 -15 -15 -15 -15 -16 -16 -15 -15 -15 -15 -14 -14 -14 -14 -14 -14 -14 -14 -14 -14 -14 -14 -14 -14 -14
-14 -14 -14 -14 -14 -14 -14 -14 -14 -14 -14 -14 -15 -14 -15 -14 -15 -15 -15 -15 -15 -15 -15 -16 -15 -15 -15 -15 -14 -14 -14 -14 -14 -14 -14 -14 -14 -14 -14 -14 -14 -14 -14 -14
-14 -14 -14 -14 -14 -14 -14 -14 -14 -14 -14 -14 -14 -14 -15 -15 -15 -15 -15 -15 -15 -15 -16 -16 -15 -15 -15 -14 -14 -14 -14 -14 -14 -14 -14 -14 -14 -14 -14 -14 -14 -14 -14 -14
-14 -14 -14 -14 -14 -14 -14 -14 -14 -14 -14 -14 -14 -14 -14 -15 -15 -15 -16 -16 -15 -16 -16 -15 -15 -15 -14 -14 -14 -14 -14 -14 -14 -14 -14 -14 -14 -14 -14 -14 -14 -14 -14 -14
-14 -14 -14 -14 -14 -14 -14 -14 -14 -14 -14 -14 -14 -14 -14 -14 -15 -15 -16 -16 -16 -15 -15 -15 -15 -15 -14 -14 -14 -14 -14 -14 -14 -14 -14 -14 -14 -14 -14 -14 -14 -14 -14 -14
-14 -14 -14 -14 -14 -14 -14 -14 -14 -14 -14 -14 -14 -14 -14 -14 -14 -15 -15 -16 -16 -15 -15 -15 -15 -15 -14 -14 -14 -14 -14 -14 -14 -14 -14 -14 -14 -14 -14 -14 -14 -14 -14 -14
-14 -14 -14 -14 -14 -15 -14 -14 -14 -14 -14 -14 -14 -14 -14 -14 -14 -14 -15 -14 -14 -15 -15 -14 -14 -14 -14 -14 -14 -14 -14 -14 -14 -14 -14 -14 -14 -14 -14 -14 -14 -14 -14 -15
-14 -14 -14 -15 -15 -15 -14 -14 -13 -13 -14 -14 -13 -14 -14 -14 -14 -14 -14 -14 -14 -15 -15 -14 -14 -14 -14 -14 -14 -14 -14 -14 -14 -14 -14 -14 -14 -14 -14 -14 -14 -14 -14 -15
-15 -15 -15 -15 -16 -16 -15 -14 -14 -13 -13 -14 -14 -14 -14 -13 -14 -14 -14 -14 -14 -14 -14 -14 -14 -14 -14 -14 -14 -14 -14 -14 -14 -14 -14 -14 -14 -14 -14 -14 -14 -14 -14 -15
-16 -16 -15 -14 -15 -15 -15 -15 -15 -15 -14 -13 -13 -13 -14 -14 -14 -14 -14 -14 -14 -14 -14 -14 -14 -14 -14 -14 -14 -14 -14 -14 -14 -14 -14 -14 -14 -14 -14 -14 -14 -14 -14 -14
-15 -15 -14 -13 -14 -14 -15 -15 -15 -15 -15 -14 -14 -14 -14 -13 -14 -14 -14 -14 -14 -14 -14 -14 -14 -14 -14 -14 -14 -14 -14 -14 -14 -14 -14 -14 -14 -14 -14 -14 -14 -14 -15 -15
Height
5745 5751 5757 5763 5768 5773 5776 5779 5782 5786 5789 5793 5796 5799 5801 5804 5807 5807 5808 5809 5809 5809 5808 5808 5808 5808 5807 5806 5804 5802 5800 5798 5795 5793 5790 5787 5785 5782 5779 5777 5774 5771 5769 5765
5744 5750 5755 5760 5765 5769 5773 5776 5779 5782 5785 5788 5791 5795 5795 5798 5801 5802 5802 5801 5801 5800 5800 5800 5799 5798 5797 5795 5793 5791 5789 5786 5784 5782 5779 5777 5774 5771 5768 5765 5763 5760 5756 5754
5743 5749 5752 5757 5761 5766 5769 5772 5776 5778 5781 5783 5785 5789 5790 5792 5794 5795 5795 5794 5793 5792 5791 5791 5790 5788 5786 5784 5782 5780 5777 5775 5772 5770 5768 5766 5763 5760 5758 5756 5753 5749 5745 5741
5741 5746 5750 5754 5758 5762 5766 5769 5771 5773 5776 5777 5780 5779 5786 5786 5786 5786 5785 5785 5784 5784 5783 5780 5779 5777 5775 5773 5770 5768 5766 5765 5763 5760 5759 5756 5753 5751 5749 5746 5744 5741 5736 5730
5741 5744 5748 5751 5755 5758 5761 5764 5766 5768 5770 5771 5775 5772 5779 5781 5780 5778 5777 5775 5773 5772 5771 5770 5769 5767 5765 5763 5761 5759 5757 5755 5753 5751 5748 5746 5744 5742 5741 5739 5736 5732 5727 5720
5736 5741 5745 5748 5752 5755 5758 5760 5762 5763 5764 5764 5766 5766 5767 5770 5771 5770 5768 5767 5764 5762 5761 5760 5758 5757 5756 5755 5752 5749 5747 5745 5744 5742 5740 5738 5737 5736 5734 5732 5729 5724 5719 5713
5733 5737 5741 5744 5748 5750 5752 5754 5755 5756 5756 5757 5759 5756 5764 5758 5758 5757 5757 5757 5755 5754 5753 5752 5751 5750 5749 5747 5744 5742 5740 5738 5737 5736 5734 5732 5731 5730 5728 5726 5722 5719 5714 5707
5729 5733 5736 5739 5742 5745 5747 5749 5750 5748 5749 5750 5751 5750 5752 5751 5749 5748 5748 5747 5747 5747 5746 5745 5744 5743 5742 5740 5738 5736 5735 5734 5731 5729 5729 5728 5727 5725 5723 5721 5718 5715 5709 5700
5725 5728 5731 5733 5736 5739 5741 5742 5742 5742 5742 5742 5744 5745 5744 5743 5742 5741 5740 5740 5740 5740 5739 5739 5738 5736 5735 5735 5734 5732 5731 5727 5725 5725 5725 5724 5723 5722 5720 5718 5715 5710 5704 5696
5724 5726 5728 5730 5732 5734 5735 5736 5737 5736 5736 5736 5737 5738 5736 5736 5734 5733 5733 5733 5733 5733 5733 5732 5732 5732 5732 5731 5729 5727 5724 5723 5722 5721 5722 5722 5721 5720 5717 5715 5711 5707 5700 5693
5723 5725 5727 5728 5729 5730 5732 5732 5732 5732 5731 5730 5730 5733 5731 5728 5727 5725 5725 5725 5726 5726 5727 5727 5728 5728 5728 5728 5727 5725 5724 5722 5722 5721 5722 5721 5720 5718 5715 5712 5708 5704 5697 5691
5723 5724 5725 5726 5727 5728 5728 5728 5728 5727 5728 5726 5724 5728 5722 5720 5719 5716 5715 5715 5717 5719 5720 5722 5723 5725 5725 5726 5725 5724 5723 5722 5722 5721 5721 5720 5718 5716 5713 5709 5705 5700 5695 5689
5722 5723 5723 5724 5725 5724 5724 5724 5724 5723 5722 5721 5718 5721 5716 5715 5714 5712 5711 5712 5713 5714 5716 5718 5719 5720 5722 5723 5723 5723 5722 5721 5721 5721 5719 5717 5716 5713 5710 5706 5702 5697 5692 5687
5720 5720 5720 5721 5721 5721 5721 5720 5720 5719 5718 5718 5716 5715 5712 5711 5710 5709 5710 5710 5711 5712 5713 5714 5714 5716 5718 5720 5720 5720 5720 5720 5719 5718 5717 5715 5713 5711 5707 5703 5699 5695 5690 5685
5719 5719 5719 5719 5719 5718 5718 5718 5717 5716 5715 5714 5713 5712 5710 5709 5708 5708 5708 5708 5709 5709 5709 5709 5710 5713 5715 5717 5717 5718 5718 5718 5717 5716 5714 5712 5710 5707 5704 5700 5696 5691 5687 5682
5719 5720 5718 5718 5718 5717 5717 5716 5715 5714 5712 5711 5710 5708 5707 5705 5705 5705 5706 5706 5705 5704 5704 5705 5707 5710 5712 5713 5714 5715 5715 5715 5714 5712 5711 5709 5706 5704 5700 5696 5693 5688 5684 5679
5719 5719 5718 5717 5716 5716 5716 5714 5713 5712 5710 5709 5707 5706 5705 5703 5703 5702 5701 5701 5700 5700 5700 5702 5705 5707 5709 5710 5710 5711 5711 5710 5710 5708 5707 5705 5703 5700 5696 5692 5688 5684 5680 5676
5718 5717 5716 5716 5715 5715 5713 5712 5710 5709 5707 5705 5703 5701 5700 5698 5697 5695 5697 5696 5696 5695 5696 5699 5702 5704 5705 5706 5706 5707 5707 5706 5706 5704 5703 5701 5698 5695 5691 5687 5683 5680 5676 5672
5717 5716 5715 5714 5712 5712 5710 5709 5707 5706 5705 5702 5700 5699 5697 5694 5691 5689 5691 5691 5691 5691 5693 5696 5698 5700 5702 5702 5703 5703 5703 5703 5702 5701 5698 5696 5693 5689 5686 5682 5678 5674 5671 5667
5716 5715 5714 5712 5710 5709 5707 5706 5705 5703 5702 5700 5699 5697 5694 5691 5688 5685 5685 5686 5686 5687 5690 5693 5695 5697 5698 5698 5699 5699 5698 5698 5697 5695 5692 5689 5686 5683 5679 5676 5672 5669 5665 5661
5712 5711 5710 5709 5708 5706 5705 5703 5702 5701 5703 5698 5696 5694 5692 5689 5686 5683 5683 5683 5683 5685 5688 5690 5691 5692 5693 5693 5693 5692 5692 5690 5690 5687 5684 5681 5678 5675 5672 5669 5666 5662 5659 5655
5707 5706 5705 5704 5703 5703 5699 5700 5700 5698 5696 5695 5693 5691 5690 5687 5685 5683 5682 5682 5682 5684 5685 5686 5687 5687 5687 5687 5686 5686 5684 5682 5682 5679 5676 5673 5670 5667 5663 5660 5656 5653 5649 5646
5701 5699 5699 5698 5697 5692 5693 5692 5692 5692 5691 5689 5688 5687 5686 5685 5683 5682 5680 5680 5680 5681 5682 5681 5682 5681 5680 5679 5679 5678 5674 5673 5672 5671 5668 5663 5660 5657 5654 5652 5648 5644 5641 5637
5695 5691 5689 5687 5689 5683 5682 5685 5685 5683 5683 5682 5681 5680 5679 5679 5678 5678 5677 5677 5676 5675 5675 5675 5674 5673 5672 5670 5669 5668 5665 5662 5662 5661 5658 5654 5650 5647 5645 5642 5638 5634 5630 5627
5688 5682 5676 5679 5681 5680 5675 5675 5675 5673 5673 5672 5671 5671 5671 5670 5669 5669 5669 5669 5668 5667 5665 5664 5663 5662 5661 5659 5657 5657 5655 5653 5652 5649 5645 5642 5639 5636 5633 5630 5627 5623 5619 5615
5674 5671 5668 5668 5670 5668 5671 5666 5663 5663 5661 5660 5660 5661 5659 5658 5659 5658 5658 5656 5656 5656 5655 5653 5652 5650 5649 5647 5645 5643 5642 5640 5638 5636 5632 5629 5626 5623 5620 5617 5614 5610 5605 5602
Wind_Speed
34 35 35 34 33 34 34 35 37 37 37 38 38 37 37 36 35 36 38 39 40 41 43 45 45 45 46 46 48 49 50 50 51 51 53 54 55 54 53 51 50 51 53 55
34 34 34 34 34 34 34 35 37 37 38 39 39 38 40 41 38 40 42 43 45 46 47 47 47 48 49 50 50 50 51 52 52 53 52 49 47 46 47 48 49 51 55 57
32 33 33 34 36 36 36 37 36 38 39 40 41 41 42 42 42 42 43 45 47 49 50 50 50 50 50 50 51 51 50 50 49 48 47 46 45 46 47 48 51 50 44 47
30 32 33 35 36 37 37 37 38 40 41 43 43 48 42 42 44 45 47 49 50 50 51 52 52 52 52 50 48 47 47 46 45 44 44 44 46 47 45 35 32 35 37 42
40 30 34 33 34 35 36 38 38 40 42 44 44 50 47 43 44 47 49 52 52 53 53 53 51 49 47 45 45 45 45 44 42 43 47 46 39 29 24 23 22 29 34 38
45 49 38 33 34 36 37 38 40 42 44 47 46 48 52 49 49 53 55 54 53 50 48 46 44 43 43 42 41 41 42 43 44 37 31 29 22 13 13 20 19 24 27 34
37 41 52 52 50 50 47 46 48 51 52 54 56 60 56 55 49 46 43 42 41 40 40 40 40 39 38 38 40 42 39 29 23 23 21 13 8 11 12 10 16 21 26 31
27 28 30 36 43 47 47 48 49 51 50 48 45 46 41 39 38 38 37 36 35 34 34 34 34 34 36 34 30 24 20 21 22 16 9 6 7 5 9 11 15 19 26 31
24 24 24 26 28 31 31 32 33 34 35 36 34 32 32 32 32 33 33 33 32 30 29 30 31 25 17 16 15 15 18 17 11 5 3 5 2 5 6 9 15 22 28 31
14 16 17 18 19 20 21 23 24 26 29 31 32 30 29 31 34 34 33 33 31 30 29 25 16 13 13 12 12 12 8 5 2 1 3 5 5 6 6 12 20 25 28 31
10 12 14 14 16 16 17 18 21 24 27 29 32 30 27 34 34 35 35 33 30 26 20 15 14 12 11 10 6 4 5 6 6 6 5 4 3 5 11 17 21 25 28 31
8 8 10 12 14 15 17 18 22 25 27 30 33 27 28 30 30 29 29 25 21 19 17 16 15 13 15 11 6 8 5 4 3 3 2 2 6 11 15 19 22 25 28 30
12 14 16 18 20 23 24 25 25 25 20 15 20 11 16 17 17 16 13 14 16 16 16 16 16 19 16 14 6 8 4 3 1 2 5 6 10 13 16 19 23 27 30 31
6 6 6 7 8 8 9 9 10 10 9 13 11 11 15 13 14 13 12 13 15 15 17 18 17 23 20 13 9 8 6 5 4 6 7 8 11 13 16 20 25 28 30 31
4 4 4 4 4 4 5 6 6 5 7 5 9 6 11 10 10 11 12 15 17 19 19 16 20 23 18 13 10 9 8 7 7 7 10 11 13 15 19 23 26 28 30 30
3 2 3 2 3 3 3 3 4 5 6 5 5 11 6 10 14 13 12 13 17 20 16 15 20 17 16 12 11 11 10 10 9 11 12 13 15 17 21 25 28 29 30 29
1 1 1 3 3 4 5 6 7 9 10 11 13 16 12 15 13 14 19 19 20 21 16 19 21 17 15 15 15 15 14 13 14 16 17 18 19 21 24 28 30 30 30 29
3 4 5 8 9 9 11 13 15 16 16 17 19 19 16 19 20 23 21 21 20 19 20 22 21 19 18 18 17 17 17 16 19 19 20 21 22 25 28 31 31 31 30 30
6 7 7 8 12 12 11 13 15 14 13 14 14 15 15 18 23 24 22 21 20 21 25 22 22 22 22 20 19 19 19 20 21 21 22 24 26 29 32 32 33 33 32 33
8 9 9 9 10 11 11 12 13 13 12 12 13 14 15 16 19 18 20 22 19 23 26 23 23 22 22 21 22 22 23 23 23 23 26 27 30 33 34 34 33 34 34 34
16 16 16 16 16 19 16 16 15 16 15 15 16 16 16 16 15 12 13 18 15 26 25 20 18 20 21 21 24 26 24 27 25 27 30 32 34 36 36 36 35 35 37 39
21 22 22 22 22 23 26 23 22 20 18 18 19 20 18 17 16 13 13 16 17 27 24 22 22 23 24 25 26 28 32 32 31 31 34 37 38 39 39 37 36 37 37 38
23 26 26 26 25 30 29 29 29 27 25 25 25 24 22 21 20 16 16 21 20 23 24 25 26 29 32 33 33 33 38 38 36 35 38 42 44 43 42 40 41 42 43 43
24 27 30 31 28 32 34 30 30 31 30 30 29 28 28 26 26 25 23 26 28 29 30 32 34 36 37 39 40 40 41 42 40 41 43 46 47 46 45 44 45 45 46 46
30 37 39 35 31 33 37 34 33 35 35 34 35 34 32 33 32 33 32 34 36 37 39 39 41 42 43 45 45 44 44 46 46 48 49 49 48 47 48 48 48 49 50 50
37 40 39 37 36 36 30 34 36 37 37 37 37 34 35 37 38 39 38 39 41 43 44 45 46 46 47 47 49 50 50 51 52 52 51 50 50 49 50 51 50 51 52 52
Wind_Direction
210 213 217 219 222 223 225 225 226 227 228 231 235 240 245 249 255 262 266 269 270 270 270 271 273 276 280 283 285 286 287 288 289 290 291 290 289 287 287 287 286 285 284 283
212 215 217 221 224 226 228 231 233 235 236 240 242 246 253 257 261 267 271 274 274 274 274 276 280 285 287 287 288 289 290 291 291 289 288 289 288 287 286 286 287 288 287 287
217 218 219 223 226 230 233 236 240 244 246 249 252 253 260 267 270 271 272 274 275 276 280 285 286 286 286 288 289 289 288 288 289 290 290 290 289 287 288 291 292 294 296 296
223 223 224 226 230 233 239 243 247 250 253 257 259 262 263 269 273 276 275 275 278 281 282 282 283 286 286 286 285 284 285 287 288 289 289 287 287 288 294 296 296 301 303 305
224 231 232 233 234 237 242 246 251 255 259 261 263 268 266 267 272 273 275 278 278 280 281 283 284 283 283 283 284 285 287 288 289 290 290 292 296 298 295 303 307 310 322 324
227 230 236 237 242 247 250 254 258 259 261 262 265 267 269 273 271 273 275 275 276 277 279 280 281 282 284 285 287 288 289 292 296 296 294 293 288 291 309 316 330 340 339 340
230 234 234 238 243 248 253 256 260 262 264 265 268 270 275 277 277 275 274 272 272 274 277 279 280 282 285 288 290 293 296 296 293 290 281 282 289 299 318 333 335 332 336 345
221 228 232 236 240 245 249 253 257 261 262 265 266 269 273 273 273 273 274 274 275 275 275 277 281 286 290 290 291 289 289 287 287 275 285 274 296 310 322 320 337 345 347 349
225 228 232 234 237 241 245 249 253 258 261 262 265 267 272 274 273 272 273 275 276 278 280 283 286 283 275 277 282 288 285 290 279 274 235 275 256 302 307 320 336 341 346 347
206 211 216 223 229 237 240 248 255 261 264 265 267 271 278 274 272 274 273 273 274 276 281 280 265 250 265 272 276 277 286 256 199 224 222 189 238 298 313 337 343 344 344 343
214 223 227 235 240 246 249 254 260 262 268 275 273 270 280 273 275 274 273 271 270 269 258 242 231 248 253 233 229 189 150 122 119 119 169 207 290 310 334 344 342 341 346 346
202 222 228 235 243 248 252 258 263 269 274 277 277 279 274 275 277 275 267 254 234 227 227 228 234 251 211 200 191 167 145 157 158 138 107 300 322 334 342 341 343 344 345 347
242 248 249 249 255 255 257 260 269 273 279 285 273 264 269 270 276 274 258 229 218 213 221 237 261 230 207 201 213 203 203 200 234 227 323 329 332 332 336 339 341 344 344 345
201 217 227 232 239 240 245 256 262 267 272 267 278 272 280 274 263 251 235 222 215 231 248 269 244 210 206 216 232 228 230 240 254 296 307 318 324 328 334 338 342 341 342 344
166 188 201 209 219 222 233 248 256 261 263 267 276 263 261 254 244 225 220 222 234 254 266 264 215 205 216 220 232 232 235 254 269 283 304 313 318 325 331 336 336 337 340 341
163 192 151 179 182 193 217 230 241 243 257 261 273 262 262 240 232 234 232 239 245 262 270 223 208 211 212 226 237 240 244 257 267 290 296 302 308 316 324 328 331 334 337 339
71 24 321 278 261 248 262 277 281 280 282 279 269 277 269 269 258 246 238 238 247 258 235 209 204 216 221 230 235 238 245 262 278 286 294 299 305 314 319 324 328 329 331 333
292 293 291 289 293 288 286 286 286 288 289 281 285 295 288 269 260 249 247 247 252 246 212 202 209 221 231 235 238 242 253 268 278 283 290 296 301 308 315 319 322 323 325 325
290 290 287 291 295 292 284 286 289 291 295 294 294 299 295 281 276 266 247 247 259 233 204 207 215 227 240 244 245 252 262 270 277 283 286 290 299 307 311 315 316 318 320 322
286 286 290 293 294 297 294 298 296 295 298 299 304 311 316 309 298 290 248 255 261 221 207 212 225 237 245 248 250 256 264 270 278 285 286 292 300 306 309 310 311 314 316 318
282 280 282 285 287 286 281 284 284 286 297 298 300 303 311 319 309 291 251 256 252 211 215 229 244 250 251 250 254 259 263 269 281 283 287 292 299 303 306 309 311 312 315 317
279 282 283 283 285 283 283 283 282 283 288 291 291 289 293 298 301 297 267 247 224 212 226 242 248 250 251 254 260 265 269 276 282 284 287 292 298 301 302 304 305 305 307 309
271 277 277 280 281 276 274 277 280 281 278 277 279 281 284 280 280 274 259 232 236 240 249 255 256 259 262 265 267 272 276 281 282 285 289 294 298 300 301 303 303 304 305 307
277 278 279 275 272 277 277 276 275 278 279 279 276 274 273 272 271 268 256 246 250 254 256 259 261 264 267 270 273 275 277 279 282 286 289 293 296 298 299 301 301 302 303 304
288 286 281 283 282 284 288 286 283 282 283 279 276 275 272 269 267 265 264 261 259 259 261 262 264 267 270 272 275 275 276 280 284 287 289 291 292 294 295 296 298 299 300 301
281 280 280 286 289 288 284 284 283 285 289 286 283 277 275 270 265 266 266 262 263 264 264 264 265 265 267 269 272 275 277 279 281 283 285 286 288 291 293 294 295 297 298 299